Regional Weather Roundup
Issued by NWS

Home | Current Version | Previous Version | Text Only | Print | Product List | Glossary On
Versions: 1 2 3 4 5 6 7 8 9 10 11 12 13 14 15 16 17 18 19 20 21 22 23 24 25 26 27 28 29 30 31 32 33 34 35 36 37 38 39 40 41 42 43 44 45 46 47 48 49 50
000
ASUS45 KABQ 111510
RWRNM
NEW MEXICO REGIONAL WEATHER ROUNDUP
NATIONAL WEATHER SERVICE ALBUQUERQUE NM
800 AM MST MON DEC 11 2017

NOTE: "FAIR" MEANS FEW OR NO CLOUDS BELOW 12,000 FEET AGL WITH NO
       SIGNIFICANT WEATHER OR OBSTRUCTIONS TO VISION.

      THIS PRODUCT IS RELEASED AS TWO VERSIONS.  ONE VERSION NEAR
      THE TOP OF THE HOUR CONTAINING PRELIMINARY DATA FROM ALBUQUERQUE
      AND OTHER STATIONS.  A FINAL VERSION WITH ADDITIONAL DATA IS
      ISSUED ABOUT 10 MINUTES AFTER THE HOUR.

NMZ501-503-504-510>518-111600-
NORTHWEST PLATEAU/NORTHCENTRAL MOUNTAINS

CITY           SKY/WX    TMP DP  RH WIND       PRES   REMARKS
FARMINGTON     FAIR      16   1  51 E8        30.52R WCI   5
LOS ALAMOS     FAIR      34  -4  20 E5        30.45S WCI  30
SANTA FE       FAIR      22   1  40 N17       30.44S WCI   8
TAOS           FAIR      17   1  49 N8        30.52F WCI   7
ANGEL FIRE     FAIR       8   2  80 CALM      30.52S

$$
NMZ402-403-502-505>509-111600-
WESTCENTRAL MOUNTAINS/SOUTHWEST MOUNTAINS

CITY           SKY/WX    TMP DP  RH WIND       PRES   REMARKS
GALLUP         FAIR       4 -14  43 CALM      30.51R
GRANTS         FAIR      11 -13  32 NW7       30.52S WCI   0
SILVER CITY    FAIR      31   2  29 N6        30.40F WCI  25

$$
NMZ407-409-411-412-111600-
SOUTHERN DESERTS

CITY           SKY/WX    TMP DP  RH WIND       PRES   REMARKS
DEMING         FAIR      31   7  36 SW3       30.41R
LAS CRUCES     FAIR      32  13  45 CALM      30.41S
HOLLOMAN AFB   FAIR      26   7  44 CALM      30.44S
ALAMOGORDO     FAIR      25  12  58 CALM      30.42S
T OR C         FAIR      31   2  29 N6        30.44R WCI  25

$$
NMZ519>523-111600-
CENTRAL VALLEYS/CENTRAL HIGHLANDS

CITY           SKY/WX    TMP DP  RH WIND       PRES   REMARKS
ALBUQUERQUE    FAIR      28   4  35 N9        30.47R WCI  19
DOUBLE EAGLE   PTCLDY    21   1  42 W5        30.47R WCI  15
MORIARTY ARPT  FAIR      19   2  49 N5        30.46R WCI  12
CLINES CORNERS FAIR      28  -1  28 NW17      30.43R WCI  16
BELEN          FAIR      24  -1  33 NW5       30.47R WCI  18
SOCORRO        FAIR      26   2  36 NW7       30.46F WCI  18

$$
NMZ524>526-539-540-111600-
SOUTHCENTRAL MOUNTAINS

CITY           SKY/WX    TMP DP  RH WIND       PRES   REMARKS
RUIDOSO        FAIR      39  -6  14 W8        30.44R WCI  34

$$
NMZ527>531-111600-
NORTHEAST HIGHLANDS/NORTHEAST PLAINS

CITY           SKY/WX    TMP DP  RH WIND       PRES   REMARKS
LAS VEGAS      FAIR      36  -3  19 NE8       30.40R WCI  30
RATON          FAIR      26   2  35 NE10      30.38R WCI  16
CLAYTON        FAIR      51  -6   9 NW13      30.31R

$$
NMZ532>537-111600-
EASTCENTRAL PLAINS

CITY           SKY/WX    TMP DP  RH WIND       PRES   REMARKS
SANTA ROSA     FAIR      32   6  32 N5        30.34R WCI  28
TUCUMCARI      FAIR      33   7  33 W7        30.30R WCI  27
CANNON AFB     FAIR      37   6  27 NW8       30.32R WCI  30
CLOVIS AIRPORT FAIR      36   7  29 W8        30.31R WCI  30

$$
NMZ028-029-538-111600-
SOUTHEAST PLAINS

CITY           SKY/WX    TMP DP  RH WIND       PRES   REMARKS
ROSWELL        FAIR      29  10  45 CALM      30.35R
ARTESIA        FAIR      30   7  37 NW8       30.36S WCI  23
CARLSBAD       FAIR      33  28  81 W3        30.34S
HOBBS          SUNNY     36  16  44 NW8       30.33S WCI  29


$$



USA.gov is the U.S. government's official web portal to all federal, state and local government web resources and services.